Location: Puerto Pe�asco
(31.3170°N, 113.5330°W)
Time: 05:09:36
(UTC-06:00)

OTV 5 (USA 277) - Visible Passes

Search period start: 26 September 2018 00:00
Search period end: 06 October 2018 00:00
Orbit: 387 x 394 km, 54.5° (Epoch: 08 September)

Date Brightness Start Highest point End Pass type
(mag) Time Alt. Az. Time Alt. Az. Time Alt. Az.
26 Sep ? 05:12:23 11° ESE 05:12:23 11° ESE 05:12:53 10° ESE visible
26 Sep ? 06:44:50 13° WSW 06:47:25 35° NW 06:50:24 10° NNE visible
27 Sep ? 05:51:20 69° ENE 05:51:20 69° ENE 05:54:15 10° NE visible
28 Sep ? 06:30:08 17° NW 06:30:44 18° NW 06:33:01 10° N visible
29 Sep ? 05:36:21 18° NNE 05:36:21 18° NNE 05:37:20 10° NNE visible
